Content
SEND FEEDBACK

Daily
Averages
Monthly
Summary
United States of America

BLAIR, WISCONSIN


Home > North America > United States > Wisconsin
Elevation: 910 feet     Latitude: 44 17N     Longitude: 091 13W

WEATHER
 
SELECT A DAY
Number of Records: 86,121;   Date Range: 11/18/10 - 7/27/14
 
SHARE

PRINT THIS DATA

[ ← Previous Day ]
WEATHER ALMANAC - JANUARY 31, 2013
[ Next Day → ]
[ °C ]   °F
Weather ElementAverageHighLow
Temperature6.9 °F14 °F (12:35 am)-0.4 °F (11:15 pm)
Dewpoint-1.3 °F8.6 °F (1:55 am)-9.4 °F (11:35 pm)
Humidity69.2 %85 % (1:55 am)57 % (1:15 pm)
Barometer29.90 in30.16 in (11:35 pm)29.65 in (12:35 am)
Wind Speed10.5 mph16.1 mph (6:55 am)
Wind Gust25.3 mph (9:55 am)
Weather ElementAverage
Visibility8.1 mi
Wind DirectionWNW (292.5 °)

Weather ElementTotal
Precipitation---
Heating Degree Days58.2 (Base 65)
Averaged from 65 records on January 31, 2013
WEATHER CONDITIONS BREAKOUT
WIND DIRECTION BREAKOUT
WEATHER BY HOUR - JANUARY 31, 2013
[ °C ]   °F
Local TimeTemperatureDewpointHumidityBarometerVisibilityWind DirectionWind SpeedGust SpeedPrecipitationEventsConditions
12:35 AM14.0 °F5.0 °F67 %29.65 in10.0 miNW (310°)9.2 mphOvercast
12:55 AM14.0 °F5.0 °F67 %29.65 in10.0 miNW (310°)8.1 mphOvercast
1:35 AM14.0 °F6.8 °F73 %29.66 in4.0 miWNW (290°)6.9 mphSnowLight Snow
1:55 AM12.2 °F8.6 °F85 %29.67 in1.8 miWNW (290°)6.9 mphSnowLight Snow
2:15 AM12.2 °F6.8 °F79 %29.68 in4.0 miWNW (300°)9.2 mph18.4 mphSnowLight Snow
2:35 AM12.2 °F6.8 °F79 %29.69 in4.0 miWest (280°)10.4 mphSnowLight Snow
3:15 AM12.2 °F5.0 °F73 %29.70 in10.0 miWNW (300°)6.9 mphOvercast
3:35 AM10.4 °F3.2 °F73 %29.70 in7.0 miWNW (290°)9.2 mphOvercast
3:55 AM10.4 °F3.2 °F73 %29.70 in10.0 miWNW (300°)6.9 mphOvercast
4:15 AM10.4 °F3.2 °F73 %29.71 in10.0 miWNW (300°)9.2 mph17.3 mphOvercast
4:35 AM10.4 °F3.2 °F73 %29.71 in10.0 miWNW (290°)9.2 mphOvercast
4:55 AM10.4 °F3.2 °F73 %29.71 in5.0 miNW (310°)10.4 mphHaze
5:15 AM10.4 °F3.2 °F73 %29.71 in7.0 miWNW (300°)6.9 mphOvercast
5:35 AM8.6 °F3.2 °F79 %29.72 in4.0 miWest (280°)8.1 mphSnowLight Snow
5:55 AM10.4 °F3.2 °F73 %29.73 in5.0 miWest (280°)12.7 mphSnowLight Snow
6:15 AM8.6 °F1.4 °F73 %29.73 in10.0 miWNW (300°)9.2 mph19.6 mphScattered Clouds
6:35 AM8.6 °F1.4 °F73 %29.74 in10.0 miWNW (290°)9.2 mphMostly Cloudy
6:55 AM8.6 °F1.4 °F73 %29.76 in7.0 miWest (280°)16.1 mph19.6 mphOvercast
7:15 AM8.6 °F1.4 °F73 %29.77 in10.0 miWNW (290°)12.7 mph19.6 mphOvercast
7:35 AM8.6 °F1.4 °F73 %29.78 in7.0 miWest (280°)13.8 mph20.7 mphOvercast
7:55 AM6.8 °F-0.4 °F72 %29.79 in10.0 miWNW (290°)11.5 mph21.9 mphMostly Cloudy
8:15 AM6.8 °F-0.4 °F72 %29.80 in10.0 miWNW (300°)11.5 mph17.3 mphScattered Clouds
8:35 AM6.8 °F-0.4 °F72 %29.81 in10.0 miWNW (300°)10.4 mphMostly Cloudy
9:15 AM8.6 °F-0.4 °F67 %29.83 in10.0 miWNW (290°)11.5 mph17.3 mphOvercast
9:35 AM8.6 °F-0.4 °F67 %29.83 in7.0 miNW (310°)12.7 mph21.9 mphOvercast
9:55 AM6.8 °F-0.4 °F72 %29.84 in7.0 miWNW (300°)15.0 mph25.3 mphMostly Cloudy
10:15 AM8.6 °F-0.4 °F67 %29.86 in7.0 miWNW (290°)10.4 mph18.4 mphOvercast
10:35 AM8.6 °F-2.2 °F62 %29.86 in10.0 miWNW (300°)9.2 mph17.3 mphOvercast
10:55 AM8.6 °F-2.2 °F62 %29.87 in10.0 miNNW (330°)11.5 mph18.4 mphOvercast
11:15 AM8.6 °F-0.4 °F67 %29.88 in7.0 miWNW (300°)12.7 mph21.9 mphOvercast
11:35 AM8.6 °F-0.4 °F67 %29.88 in5.0 miWNW (290°)12.7 mph24.2 mphHaze
12:15 PM8.6 °F-2.2 °F62 %29.89 in7.0 miWNW (290°)13.8 mph23.0 mphOvercast
12:35 PM8.6 °F-2.2 °F62 %29.89 in10.0 miWNW (300°)11.5 mph24.2 mphOvercast
12:55 PM8.6 °F-0.4 °F67 %29.89 in4.0 miWNW (300°)13.8 mph24.2 mphHaze
1:15 PM10.4 °F-2.2 °F57 %29.90 in10.0 miWest (280°)15.0 mph24.2 mphOvercast
1:35 PM8.6 °F-2.2 °F62 %29.90 in10.0 miNW (310°)11.5 mph23.0 mphOvercast
1:55 PM8.6 °F-2.2 °F62 %29.91 in10.0 miWNW (300°)12.7 mph23.0 mphOvercast
2:15 PM8.6 °F-2.2 °F62 %29.92 in7.0 miNW (310°)10.4 mph17.3 mphOvercast
2:35 PM8.6 °F-2.2 °F62 %29.93 in7.0 miWNW (290°)12.7 mph20.7 mphOvercast
3:15 PM8.6 °F-4.0 °F57 %29.95 in10.0 miWNW (300°)13.8 mph17.3 mphOvercast
3:35 PM6.8 °F-2.2 °F67 %29.96 in7.0 miNW (310°)12.7 mph20.7 mphOvercast
3:55 PM6.8 °F-0.4 °F72 %29.97 in4.0 miWNW (290°)13.8 mph19.6 mphHaze
4:15 PM6.8 °F-2.2 °F67 %29.98 in4.0 miWNW (290°)13.8 mph21.9 mphHaze
4:35 PM5.0 °F-2.2 °F72 %29.99 in5.0 miWest (280°)11.5 mph19.6 mphHaze
4:55 PM5.0 °F-2.2 °F72 %30.00 in4.0 miWNW (290°)12.7 mph18.4 mphHaze
5:15 PM5.0 °F-2.2 °F72 %30.01 in4.0 miWNW (290°)12.7 mph18.4 mphHaze
5:35 PM5.0 °F-4.0 °F66 %30.02 in7.0 miWest (280°)10.4 mph17.3 mphOvercast
5:55 PM3.2 °F-4.0 °F72 %30.03 in5.0 miWNW (290°)9.2 mphHaze
6:15 PM3.2 °F-4.0 °F72 %30.04 in10.0 miWNW (290°)8.1 mphScattered Clouds
6:35 PM3.2 °F-5.8 °F66 %30.06 in10.0 miWest (280°)8.1 mph16.1 mphClear
6:55 PM3.2 °F-5.8 °F66 %30.07 in10.0 miWest (280°)8.1 mphClear
7:15 PM3.2 °F-5.8 °F66 %30.08 in10.0 miWNW (290°)6.9 mphClear
7:35 PM1.4 °F-5.8 °F72 %30.08 in10.0 miWNW (290°)8.1 mphClear
8:15 PM1.4 °F-5.8 °F72 %30.10 in10.0 miWNW (290°)8.1 mph16.1 mphScattered Clouds
8:35 PM1.4 °F-5.8 °F72 %30.11 in10.0 miWNW (290°)9.2 mphClear
8:55 PM1.4 °F-5.8 °F72 %30.11 in10.0 miWNW (290°)6.9 mphClear
9:15 PM1.4 °F-7.6 °F66 %30.12 in10.0 miWest (280°)9.2 mph16.1 mphClear
9:35 PM1.4 °F-7.6 °F66 %30.12 in10.0 miWest (280°)9.2 mphClear
9:55 PM1.4 °F-7.6 °F66 %30.13 in10.0 miWest (280°)9.2 mphClear
10:15 PM1.4 °F-7.6 °F66 %30.13 in10.0 miWNW (290°)9.2 mphClear
10:35 PM1.4 °F-7.6 °F66 %30.14 in10.0 miWNW (290°)10.4 mphClear
10:55 PM1.4 °F-7.6 °F66 %30.14 in10.0 miWNW (290°)9.2 mphClear
11:15 PM-0.4 °F-7.6 °F72 %30.15 in10.0 miWest (270°)12.7 mphClear
11:35 PM-0.4 °F-9.4 °F66 %30.16 in10.0 miWest (280°)9.2 mphClear
11:55 PM-0.4 °F-9.4 °F66 %30.16 in10.0 miWest (280°)10.4 mphClear
Hourly data recorded from KBCK, located miles away from Blair, Wisconsin







STORIES FROM OUR PARTNERS